Retour au catalogue

SL-16 DEB

ActifLEO
NORAD 24300·DEBRIS·🇷🇺 Russia

Lancé Sep 4, 1996 depuis Baikonur Cosmodrome

Loading…

Prochains Passages (prochaines 24 heures)

TLE

FraisSource: Space-Track

Époque: Sep 14, 2026, 13:44 UTC

1 24300U 96051D   26257.57255855  .00000065  00000-0  98978-4 0  9990
2 24300  71.0270 296.3649 0196799 318.1095 115.1400 13.74799510505575

Suivez SL-16 DEB en temps réel avec AllMySat

Download on the App Store